TimePST,TemperatureF,Dew PointF,Humidity,Sea Level PressureIn,VisibilityMPH,Wind Direction,Wind SpeedMPH,Gust SpeedMPH,PrecipitationIn,Events,Conditions,WindDirDegrees,DateUTC
6:48 AM,42.8,41.0,93,30.28,30.0,Calm,Calm,-,N/A,,Clear,0,2013-01-31 14:48:00
7:53 AM,42.8,39.2,87,30.30,20.0,Calm,Calm,-,N/A,,Clear,0,2013-01-31 15:53:00
8:47 AM,46.4,42.8,87,30.30,15.0,Calm,Calm,-,N/A,,Clear,0,2013-01-31 16:47:00
9:48 AM,50.0,46.4,87,30.30,15.0,Calm,Calm,-,N/A,,Clear,0,2013-01-31 17:48:00
10:50 AM,55.4,44.6,67,30.30,15.0,Calm,Calm,-,N/A,,Clear,0,2013-01-31 18:50:00
12:47 PM,59.0,44.6,59,30.25,10.0,East,4.6,-,N/A,,Clear,80,2013-01-31 20:47:00
1:47 PM,62.6,44.6,52,30.22,10.0,Calm,Calm,-,N/A,,Clear,0,2013-01-31 21:47:00
2:53 PM,62.6,44.6,52,30.21,10.0,Calm,Calm,-,N/A,,Clear,0,2013-01-31 22:53:00
4:51 PM,59.0,46.4,63,30.19,10.0,North,6.9,-,N/A,,Clear,360,2013-02-01 00:51:00
5:50 PM,57.2,48.2,72,30.19,10.0,North,3.5,-,N/A,,Clear,360,2013-02-01 01:50:00
6:55 PM,57.2,44.6,63,30.20,10.0,Calm,Calm,-,N/A,,Clear,0,2013-02-01 02:55:00
7:47 PM,55.4,44.6,67,30.20,10.0,Calm,Calm,-,N/A,,Clear,0,2013-02-01 03:47:00
8:47 PM,51.8,44.6,76,30.20,10.0,Calm,Calm,-,N/A,,Clear,0,2013-02-01 04:47:00
9:15 PM,50.0,44.6,82,30.19,10.0,Calm,Calm,-,N/A,,Clear,0,2013-02-01 05:15:00
9:35 PM,50.0,44.6,82,30.20,10.0,Calm,Calm,-,N/A,,Clear,0,2013-02-01 05:35:00
9:55 PM,50.0,44.6,82,30.20,10.0,Calm,Calm,-,N/A,,Clear,0,2013-02-01 05:55:00
10:15 PM,50.0,44.6,82,30.20,10.0,Calm,Calm,-,N/A,,Clear,0,2013-02-01 06:15:00
10:35 PM,48.2,42.8,82,30.20,10.0,Calm,Calm,-,N/A,,Clear,0,2013-02-01 06:35:00
10:55 PM,48.2,42.8,82,30.20,10.0,Calm,Calm,-,N/A,,Clear,0,2013-02-01 06:55:00
11:15 PM,48.2,42.8,82,30.20,10.0,Calm,Calm,-,N/A,,Clear,0,2013-02-01 07:15:00
11:35 PM,48.2,42.8,82,30.20,10.0,Calm,Calm,-,N/A,,Clear,0,2013-02-01 07:35:00
11:55 PM,48.2,44.6,87,30.20,10.0,Calm,Calm,-,N/A,,Clear,0,2013-02-01 07:55:00